| time (UTC) | temp C | wind direction | speed KPH | gust KPH | rain 1hr cm | rain 24hr cm | rain mn cm | humidity % | barometer mb |
| 20260831004530 | 14 | 240 | 0.0 | 4.8 | 0.03 | 0.71 | 0.05 | 96 | 1008.2 |
| 20260831004033 | 13 | 239 | 0.0 | 3.2 | 0.03 | 0.71 | 0.05 | 96 | 1008.3 |
| 20260831003529 | 13 | 239 | 0.0 | 4.8 | 0.03 | 0.71 | 0.05 | 96 | 1008.2 |
| 20260831003028 | 13 | 239 | 0.0 | 4.8 | 0.03 | 0.71 | 0.05 | 96 | 1008.3 |
| 20260831002528 | 13 | 239 | 0.0 | 1.6 | 0.03 | 0.71 | 0.05 | 96 | 1008.3 |
| 20260831002027 | 13 | 239 | 0.0 | 1.6 | 0.03 | 0.71 | 0.05 | 96 | 1008.2 |
| 20260831001527 | 13 | 239 | 0.0 | 1.6 | 0.03 | 0.71 | 0.05 | 96 | 1008.2 |
| 20260831001028 | 13 | 239 | 0.0 | 3.2 | 0.03 | 0.71 | 0.05 | 96 | 1008.2 |
| 20260831000526 | 13 | 239 | 0.0 | 3.2 | 0.03 | 0.71 | 0.05 | 96 | 1008.1 |
| 20260831000036 | 13 | 239 | 0.0 | 1.6 | 0.03 | 0.71 | 0.05 | 96 | 1008.1 |
| 20260830235524 | 13 | 239 | 0.0 | 1.6 | 0.03 | 0.71 | 0.05 | 96 | 1008.1 |
| 20260830235023 | 13 | 239 | 0.0 | 1.6 | 0.00 | 0.69 | 0.05 | 96 | 1008.1 |
| 20260830234523 | 13 | 239 | 0.0 | 3.2 | 0.03 | 0.69 | 0.05 | 96 | 1008.1 |
| 20260830234024 | 13 | 239 | 0.0 | 3.2 | 0.03 | 0.69 | 0.05 | 96 | 1008.1 |
| 20260830233526 | 13 | 239 | 0.0 | 4.8 | 0.03 | 0.69 | 0.05 | 96 | 1008.2 |
| 20260830233029 | 13 | 239 | 0.0 | 4.8 | 0.03 | 0.69 | 0.05 | 96 | 1008.3 |
| 20260830232522 | 13 | 291 | 0.0 | 0.0 | 0.03 | 0.69 | 0.05 | 96 | 1008.3 |
| 20260830232122 | 13 | 291 | 0.0 | 1.6 | 0.05 | 0.69 | 0.05 | 96 | 1008.2 |
| 20260830231524 | 12 | 291 | 0.0 | 3.2 | 0.05 | 0.69 | 0.05 | 95 | 1008.1 |
| 20260830231021 | 12 | 291 | 0.0 | 3.2 | 0.05 | 0.69 | 0.05 | 95 | 1008.2 |
| 20260830230519 | 12 | 291 | 0.0 | 1.6 | 0.05 | 0.69 | 0.05 | 95 | 1008.2 |
| 20260830230019 | 12 | 291 | 0.0 | 1.6 | 0.05 | 0.69 | 0.05 | 95 | 1008.1 |
| 20260830225519 | 12 | 291 | 0.0 | 0.0 | 0.05 | 0.69 | 0.05 | 95 | 1008.2 |
| 20260830225019 | 12 | 291 | 0.0 | 0.0 | 0.05 | 0.69 | 0.05 | 95 | 1008.2 |
| 20260830224519 | 12 | 291 | 0.0 | 1.6 | 0.03 | 0.66 | 0.03 | 95 | 1008.2 |
| 20260830224018 | 12 | 291 | 0.0 | 1.6 | 0.03 | 0.66 | 0.03 | 95 | 1008.1 |
| 20260830223518 | 12 | 291 | 0.0 | 1.6 | 0.05 | 0.66 | 0.03 | 95 | 1008.2 |
| 20260830223018 | 12 | 291 | 0.0 | 1.6 | 0.05 | 0.66 | 0.03 | 95 | 1008.3 |
| 20260830222517 | 12 | 291 | 0.0 | 1.6 | 0.03 | 0.64 | 0.00 | 95 | 1008.2 |
| 20260830222021 | 12 | 291 | 0.0 | 1.6 | 0.03 | 0.64 | 0.00 | 94 | 1008.2 |
| 20260830221516 | 12 | 291 | 0.0 | 0.0 | 0.03 | 0.64 | 0.00 | 94 | 1008.2 |
| 20260830221016 | 12 | 291 | 0.0 | 0.0 | 0.03 | 0.64 | 0.00 | 94 | 1008.2 |
| 20260830220515 | 13 | 291 | 0.0 | 0.0 | 0.05 | 0.64 | 0.00 | 94 | 1008.2 |
| 20260830220015 | 13 | 291 | 0.0 | 1.6 | 0.05 | 0.64 | 0.00 | 94 | 1008.1 |
| 20260830215514 | 13 | 291 | 0.0 | 1.6 | 0.05 | 0.64 | 0.64 | 94 | 1008.2 |
| 20260830215015 | 13 | 291 | 0.0 | 0.0 | 0.05 | 0.64 | 0.64 | 93 | 1008.2 |
| 20260830214512 | 13 | 291 | 0.0 | 0.0 | 0.05 | 0.64 | 0.64 | 93 | 1008.1 |
| 20260830214011 | 13 | 291 | 0.0 | 0.0 | 0.05 | 0.64 | 0.64 | 93 | 1008.2 |
| 20260830213511 | 13 | 291 | 0.0 | 0.0 | 0.03 | 0.61 | 0.61 | 93 | 1008.2 |
| 20260830213010 | 13 | 291 | 0.0 | 0.0 | 0.03 | 0.61 | 0.61 | 93 | 1008.1 |
| 20260830212509 | 13 | 291 | 0.0 | 3.2 | 0.05 | 0.61 | 0.61 | 93 | 1008.2 |
| 20260830212009 | 13 | 291 | 0.0 | 1.6 | 0.05 | 0.61 | 0.61 | 93 | 1008.2 |
| 20260830211513 | 14 | 291 | 0.0 | 1.6 | 0.05 | 0.61 | 0.61 | 93 | 1008.1 |
| 20260830211008 | 14 | 291 | 0.0 | 1.6 | 0.05 | 0.61 | 0.61 | 93 | 1008.1 |
| 20260830210506 | 14 | 291 | 0.0 | 6.4 | 0.03 | 0.61 | 0.61 | 93 | 1008.1 |
| 20260830210006 | 14 | 291 | 0.0 | 6.4 | 0.03 | 0.61 | 0.61 | 93 | 1008.1 |
| 20260830205510 | 14 | 215 | 0.0 | 4.8 | 0.03 | 0.61 | 0.61 | 94 | 1008.1 |
| 20260830205005 | 14 | 240 | 0.0 | 4.8 | 0.05 | 0.61 | 0.61 | 93 | 1008.1 |
| 20260830204506 | 14 | 294 | 0.0 | 4.8 | 0.05 | 0.61 | 0.61 | 93 | 1008.0 |
| 20260830204005 | 14 | 148 | 0.0 | 3.2 | 0.05 | 0.61 | 0.61 | 93 | 1008.1 |
| 20260830203505 | 14 | 214 | 0.0 | 1.6 | 0.05 | 0.61 | 0.61 | 94 | 1008.0 |
| 20260830203006 | 14 | 214 | 0.0 | 3.2 | 0.05 | 0.61 | 0.61 | 94 | 1008.0 |
| 20260830202505 | 14 | 214 | 0.0 | 3.2 | 0.03 | 0.58 | 0.58 | 94 | 1008.0 |
| 20260830202004 | 14 | 214 | 0.0 | 3.2 | 0.03 | 0.58 | 0.58 | 93 | 1007.9 |
| 20260830201505 | 14 | 214 | 0.0 | 6.4 | 0.03 | 0.58 | 0.58 | 93 | 1007.9 |
| 20260830201002 | 14 | 214 | 0.0 | 6.4 | 0.03 | 0.58 | 0.58 | 93 | 1007.9 |
| 20260830200501 | 14 | 212 | 0.0 | 6.4 | 0.05 | 0.58 | 0.58 | 93 | 1007.7 |
| 20260830200001 | 14 | 194 | 0.0 | 6.4 | 0.05 | 0.58 | 0.58 | 93 | 1007.7 |
| 20260830195604 | 14 | 250 | 0.0 | 3.2 | 0.05 | 0.58 | 0.58 | 93 | 1007.7 |
| 20260830195106 | 14 | 241 | 0.0 | 4.8 | 0.03 | 0.56 | 0.56 | 93 | 1007.6 |
| 20260830194603 | 15 | 289 | 1.6 | 4.8 | 0.05 | 0.56 | 0.56 | 93 | 1007.5 |
| 20260830194102 | 15 | 324 | 0.0 | 1.6 | 0.05 | 0.56 | 0.56 | 93 | 1007.5 |
| 20260830193557 | 15 | 325 | 0.0 | 3.2 | 0.05 | 0.56 | 0.56 | 93 | 1007.5 |
| 20260830193057 | 15 | 324 | 0.0 | 3.2 | 0.05 | 0.56 | 0.56 | 93 | 1007.5 |
| 20260830192556 | 15 | 325 | 0.0 | 3.2 | 0.05 | 0.56 | 0.56 | 93 | 1007.4 |
| 20260830192101 | 15 | 331 | 0.0 | 4.8 | 0.05 | 0.56 | 0.56 | 93 | 1007.4 |
| 20260830191556 | 15 | 277 | 0.0 | 4.8 | 0.05 | 0.56 | 0.56 | 92 | 1007.3 |
| 20260830191054 | 15 | 320 | 0.0 | 4.8 | 0.05 | 0.56 | 0.56 | 92 | 1007.2 |
| 20260830190554 | 15 | 271 | 0.0 | 4.8 | 0.03 | 0.53 | 0.53 | 92 | 1007.2 |
| 20260830190054 | 15 | 272 | 0.0 | 8.0 | 0.05 | 0.53 | 0.53 | 92 | 1007.1 |
| 20260830185553 | 15 | 261 | 1.6 | 8.0 | 0.05 | 0.53 | 0.53 | 92 | 1007.1 |
| 20260830185054 | 15 | 208 | 0.0 | 8.0 | 0.05 | 0.53 | 0.53 | 91 | 1007.0 |
| 20260830184552 | 15 | 81 | 3.2 | 8.0 | 0.03 | 0.51 | 0.51 | 91 | 1006.9 |
| 20260830184051 | 15 | 318 | 0.0 | 8.0 | 0.05 | 0.51 | 0.51 | 91 | 1006.8 |
| 20260830183550 | 16 | 19 | 3.2 | 8.0 | 0.05 | 0.51 | 0.51 | 91 | 1006.7 |
| 20260830183050 | 16 | 218 | 1.6 | 14.5 | 0.05 | 0.51 | 0.51 | 91 | 1006.6 |
| 20260830182549 | 16 | 243 | 3.2 | 14.5 | 0.05 | 0.51 | 0.51 | 91 | 1006.5 |
| 20260830182049 | 16 | 292 | 3.2 | 9.7 | 0.05 | 0.51 | 0.51 | 91 | 1006.5 |
| 20260830181549 | 16 | 196 | 3.2 | 9.7 | 0.05 | 0.51 | 0.51 | 91 | 1006.4 |
| 20260830181048 | 16 | 309 | 1.6 | 9.7 | 0.05 | 0.51 | 0.51 | 91 | 1006.3 |
| 20260830180550 | 16 | 327 | 1.6 | 11.3 | 0.05 | 0.51 | 0.51 | 91 | 1006.3 |
| 20260830180050 | 16 | 215 | 1.6 | 12.9 | 0.05 | 0.51 | 0.51 | 90 | 1006.2 |
| 20260830175545 | 16 | 218 | 0.0 | 8.0 | 0.05 | 0.51 | 0.51 | 90 | 1006.2 |
| 20260830175048 | 16 | 238 | 0.0 | 6.4 | 0.05 | 0.51 | 0.51 | 90 | 1006.2 |
| 20260830174545 | 16 | 190 | 1.6 | 6.4 | 0.05 | 0.51 | 0.51 | 90 | 1006.1 |
| 20260830174045 | 16 | 329 | 0.0 | 8.0 | 0.05 | 0.48 | 0.48 | 90 | 1006.0 |
| 20260830173543 | 16 | 305 | 1.6 | 11.3 | 0.05 | 0.48 | 0.48 | 90 | 1005.9 |
| 20260830173042 | 16 | 281 | 3.2 | 11.3 | 0.05 | 0.48 | 0.48 | 90 | 1005.8 |
| 20260830172547 | 16 | 219 | 3.2 | 12.9 | 0.05 | 0.48 | 0.48 | 90 | 1005.7 |
| 20260830172043 | 16 | 160 | 1.6 | 12.9 | 0.05 | 0.48 | 0.48 | 90 | 1005.7 |
| 20260830171542 | 16 | 267 | 3.2 | 12.9 | 0.05 | 0.48 | 0.48 | 91 | 1005.6 |
| 20260830171045 | 16 | 288 | 3.2 | 12.9 | 0.05 | 0.48 | 0.48 | 90 | 1005.5 |
| 20260830170541 | 17 | 267 | 0.0 | 12.9 | 0.05 | 0.48 | 0.48 | 90 | 1005.5 |
| 20260830170042 | 17 | 263 | 3.2 | 17.7 | 0.05 | 0.46 | 0.46 | 89 | 1005.4 |
| 20260830165541 | 17 | 213 | 3.2 | 17.7 | 0.05 | 0.46 | 0.46 | 89 | 1005.3 |
| 20260830165043 | 17 | 291 | 3.2 | 14.5 | 0.05 | 0.46 | 0.46 | 89 | 1005.3 |
| 20260830164557 | 17 | 294 | 4.8 | 16.1 | 0.03 | 0.43 | 0.43 | 89 | 1005.2 |
| 20260830164041 | 17 | 288 | 3.2 | 16.1 | 0.03 | 0.43 | 0.43 | 90 | 1005.1 |
| 20260830163541 | 17 | 225 | 3.2 | 14.5 | 0.03 | 0.43 | 0.43 | 90 | 1005.0 |
| 20260830163040 | 17 | 269 | 3.2 | 14.5 | 0.03 | 0.43 | 0.43 | 92 | 1005.0 |
| 20260830162540 | 17 | 228 | 1.6 | 11.3 | 0.05 | 0.43 | 0.43 | 92 | 1004.9 |
| 20260830162039 | 17 | 265 | 0.0 | 14.5 | 0.05 | 0.43 | 0.43 | 93 | 1004.8 |
| 20260830161540 | 17 | 302 | 1.6 | 14.5 | 0.05 | 0.43 | 0.43 | 92 | 1004.7 |
| 20260830161038 | 17 | 173 | 1.6 | 11.3 | 0.03 | 0.43 | 0.43 | 93 | 1004.7 |
| 20260830160538 | 17 | 246 | 3.2 | 16.1 | 0.03 | 0.43 | 0.43 | 93 | 1004.6 |
| 20260830160039 | 17 | 225 | 3.2 | 16.1 | 0.03 | 0.43 | 0.43 | 93 | 1004.6 |
| 20260830155538 | 17 | 186 | 3.2 | 16.1 | 0.03 | 0.43 | 0.43 | 94 | 1004.5 |
| 20260830155041 | 17 | 236 | 3.2 | 9.7 | 0.05 | 0.43 | 0.43 | 95 | 1004.4 |
| 20260830154538 | 17 | 253 | 1.6 | 8.0 | 0.05 | 0.43 | 0.43 | 95 | 1004.3 |
| 20260830154038 | 17 | 269 | 1.6 | 8.0 | 0.05 | 0.43 | 0.43 | 95 | 1004.2 |
| 20260830153538 | 17 | 254 | 1.6 | 8.0 | 0.05 | 0.43 | 0.43 | 95 | 1004.2 |
| 20260830153038 | 17 | 201 | 3.2 | 11.3 | 0.05 | 0.43 | 0.43 | 95 | 1004.1 |
| 20260830152537 | 17 | 209 | 1.6 | 12.9 | 0.05 | 0.41 | 0.41 | 95 | 1004.1 |
| 20260830152037 | 17 | 255 | 4.8 | 12.9 | 0.05 | 0.41 | 0.41 | 95 | 1004.0 |
| 20260830151541 | 17 | 285 | 3.2 | 12.9 | 0.05 | 0.41 | 0.41 | 95 | 1003.9 |
| 20260830151037 | 17 | 237 | 3.2 | 12.9 | 0.05 | 0.41 | 0.41 | 95 | 1003.9 |
| 20260830150537 | 17 | 257 | 1.6 | 11.3 | 0.05 | 0.41 | 0.41 | 95 | 1003.9 |
| 20260830150037 | 17 | 258 | 3.2 | 11.3 | 0.05 | 0.41 | 0.41 | 95 | 1003.8 |
| 20260830145537 | 17 | 173 | 1.6 | 8.0 | 0.03 | 0.41 | 0.38 | 95 | 1003.7 |
| 20260830145036 | 17 | 323 | 1.6 | 8.0 | 0.05 | 0.41 | 0.38 | 95 | 1003.6 |
| 20260830144536 | 17 | 325 | 1.6 | 8.0 | 0.05 | 0.41 | 0.38 | 95 | 1003.6 |
| 20260830144035 | 17 | 248 | 1.6 | 8.0 | 0.05 | 0.41 | 0.38 | 95 | 1003.5 |
| 20260830143536 | 17 | 281 | 3.2 | 11.3 | 0.05 | 0.41 | 0.38 | 95 | 1003.4 |
| 20260830143044 | 17 | 271 | 1.6 | 8.0 | 0.05 | 0.41 | 0.38 | 95 | 1003.4 |
| 20260830142535 | 17 | 344 | 1.6 | 9.7 | 0.05 | 0.38 | 0.36 | 94 | 1003.3 |
| 20260830142035 | 17 | 254 | 3.2 | 9.7 | 0.05 | 0.38 | 0.36 | 94 | 1003.3 |
| 20260830141540 | 17 | 234 | 1.6 | 6.4 | 0.05 | 0.38 | 0.36 | 94 | 1003.2 |
| 20260830141034 | 18 | 274 | 1.6 | 11.3 | 0.05 | 0.38 | 0.36 | 93 | 1003.1 |
| 20260830140534 | 18 | 133 | 0.0 | 11.3 | 0.05 | 0.38 | 0.36 | 93 | 1003.0 |
| 20260830140041 | 18 | 291 | 1.6 | 8.0 | 0.05 | 0.38 | 0.36 | 93 | 1002.9 |
| 20260830135534 | 18 | 249 | 1.6 | 8.0 | 0.05 | 0.43 | 0.36 | 92 | 1002.8 |
| 20260830135034 | 18 | 291 | 3.2 | 6.4 | 0.03 | 0.41 | 0.33 | 92 | 1002.8 |
| 20260830134541 | 19 | 296 | 1.6 | 6.4 | 0.03 | 0.41 | 0.33 | 92 | 1002.7 |
| 20260830134035 | 19 | 250 | 0.0 | 8.0 | 0.03 | 0.41 | 0.33 | 92 | 1002.6 |
| 20260830133534 | 19 | 250 | 1.6 | 8.0 | 0.05 | 0.41 | 0.33 | 92 | 1002.5 |
| 20260830133033 | 19 | 326 | 0.0 | 6.4 | 0.03 | 0.38 | 0.33 | 92 | 1002.4 |
| 20260830132534 | 19 | 216 | 1.6 | 9.7 | 0.03 | 0.38 | 0.33 | 92 | 1002.3 |
| 20260830132033 | 19 | 107 | 0.0 | 9.7 | 0.03 | 0.38 | 0.33 | 92 | 1002.1 |
| 20260830131533 | 19 | 282 | 0.0 | 8.0 | 0.03 | 0.38 | 0.33 | 93 | 1002.1 |
| 20260830131032 | 19 | 306 | 0.0 | 8.0 | 0.03 | 0.38 | 0.33 | 93 | 1001.9 |
| 20260830130531 | 19 | 303 | 1.6 | 6.4 | 0.03 | 0.38 | 0.33 | 93 | 1001.8 |
| 20260830130050 | 19 | 221 | 1.6 | 3.2 | 0.03 | 0.38 | 0.33 | 94 | 1001.8 |
| 20260830125531 | 19 | 216 | 0.0 | 11.3 | 0.03 | 0.41 | 0.33 | 94 | 1001.8 |
| 20260830125032 | 19 | 248 | 1.6 | 4.8 | 0.03 | 0.41 | 0.33 | 94 | 1001.8 |
| 20260830124533 | 18 | 260 | 1.6 | 6.4 | 0.05 | 0.41 | 0.33 | 94 | 1001.7 |
| 20260830124031 | 19 | 338 | 1.6 | 6.4 | 0.05 | 0.41 | 0.33 | 94 | 1001.7 |
| 20260830123530 | 19 | 280 | 1.6 | 6.4 | 0.03 | 0.38 | 0.30 | 94 | 1001.5 |
| 20260830123031 | 19 | 253 | 0.0 | 4.8 | 0.03 | 0.38 | 0.30 | 94 | 1001.5 |
| 20260830122531 | 19 | 288 | 1.6 | 4.8 | 0.03 | 0.38 | 0.30 | 95 | 1001.5 |
| 20260830122031 | 19 | 255 | 0.0 | 6.4 | 0.03 | 0.38 | 0.30 | 95 | 1001.4 |
| 20260830121534 | 19 | 304 | 1.6 | 11.3 | 0.03 | 0.38 | 0.30 | 95 | 1001.3 |
| 20260830121029 | 19 | 290 | 3.2 | 11.3 | 0.03 | 0.38 | 0.30 | 96 | 1001.4 |
| 20260830120529 | 19 | 224 | 1.6 | 6.4 | 0.05 | 0.38 | 0.30 | 96 | 1001.5 |
| 20260830120029 | 19 | 244 | 1.6 | 11.3 | 0.05 | 0.38 | 0.30 | 97 | 1001.4 |
| 20260830115527 | 18 | 286 | 0.0 | 4.8 | 0.05 | 0.43 | 0.30 | 96 | 1001.4 |
| 20260830115027 | 18 | 286 | 1.6 | 4.8 | 0.03 | 0.41 | 0.28 | 96 | 1001.4 |
| 20260830114527 | 18 | 249 | 0.0 | 8.0 | 0.05 | 0.41 | 0.28 | 96 | 1001.3 |
| 20260830114026 | 18 | 271 | 1.6 | 11.3 | 0.05 | 0.41 | 0.28 | 97 | 1001.3 |
| 20260830113525 | 18 | 289 | 1.6 | 11.3 | 0.05 | 0.41 | 0.28 | 97 | 1001.3 |
| 20260830113026 | 18 | 252 | 1.6 | 9.7 | 0.05 | 0.41 | 0.28 | 97 | 1001.3 |
| 20260830112524 | 18 | 309 | 1.6 | 8.0 | 0.05 | 0.41 | 0.28 | 97 | 1001.3 |
| 20260830112024 | 18 | 161 | 1.6 | 6.4 | 0.05 | 0.41 | 0.28 | 97 | 1001.3 |
| 20260830111525 | 18 | 206 | 1.6 | 6.4 | 0.05 | 0.41 | 0.28 | 97 | 1001.2 |
| 20260830111022 | 18 | 191 | 1.6 | 6.4 | 0.05 | 0.38 | 0.25 | 98 | 1001.2 |
| 20260830110521 | 18 | 220 | 0.0 | 8.0 | 0.05 | 0.38 | 0.25 | 98 | 1001.3 |
| 20260830110026 | 18 | 248 | 3.2 | 8.0 | 0.05 | 0.38 | 0.25 | 98 | 1001.3 |
| 20260830105519 | 18 | 184 | 1.6 | 11.3 | 0.05 | 0.41 | 0.25 | 98 | 1001.4 |
| 20260830105019 | 17 | 183 | 3.2 | 11.3 | 0.05 | 0.41 | 0.25 | 98 | 1001.4 |
| 20260830104521 | 17 | 271 | 0.0 | 12.9 | 0.05 | 0.38 | 0.23 | 98 | 1001.3 |
| 20260830104019 | 17 | 161 | 4.8 | 12.9 | 0.05 | 0.38 | 0.23 | 98 | 1001.3 |
| 20260830103519 | 18 | 224 | 3.2 | 11.3 | 0.05 | 0.38 | 0.23 | 98 | 1001.3 |
| 20260830103019 | 17 | 173 | 1.6 | 8.0 | 0.05 | 0.38 | 0.23 | 98 | 1001.2 |
| 20260830102517 | 17 | 317 | 1.6 | 6.4 | 0.05 | 0.38 | 0.23 | 98 | 1001.3 |
| 20260830102015 | 17 | 185 | 3.2 | 11.3 | 0.05 | 0.36 | 0.23 | 98 | 1001.3 |
| 20260830101514 | 17 | 277 | 1.6 | 11.3 | 0.05 | 0.36 | 0.23 | 98 | 1001.3 |
| 20260830101014 | 17 | 215 | 1.6 | 6.4 | 0.05 | 0.36 | 0.23 | 98 | 1001.3 |
| 20260830100514 | 17 | 165 | 1.6 | 9.7 | 0.05 | 0.36 | 0.23 | 98 | 1001.3 |
| 20260830100015 | 17 | 160 | 0.0 | 9.7 | 0.05 | 0.33 | 0.20 | 98 | 1001.3 |
| 20260830095514 | 17 | 254 | 1.6 | 9.7 | 0.05 | 0.33 | 0.20 | 98 | 1001.3 |
| 20260830095015 | 17 | 144 | 4.8 | 9.7 | 0.05 | 0.33 | 0.20 | 98 | 1001.3 |
| 20260830094524 | 17 | 190 | 1.6 | 8.0 | 0.05 | 0.33 | 0.20 | 98 | 1001.2 |
| 20260830094015 | 17 | 192 | 1.6 | 9.7 | 0.08 | 0.33 | 0.20 | 98 | 1001.2 |
| 20260830093514 | 17 | 126 | 1.6 | 9.7 | 0.05 | 0.33 | 0.18 | 98 | 1001.2 |
| 20260830093012 | 17 | 209 | 3.2 | 9.7 | 0.05 | 0.33 | 0.18 | 98 | 1001.3 |
| 20260830092515 | 17 | 197 | 4.8 | 9.7 | 0.08 | 0.33 | 0.18 | 98 | 1001.3 |
| 20260830092013 | 17 | 201 | 3.2 | 11.3 | 0.08 | 0.33 | 0.18 | 98 | 1001.2 |
| 20260830091512 | 17 | 184 | 4.8 | 11.3 | 0.05 | 0.30 | 0.15 | 98 | 1001.2 |
| 20260830091011 | 17 | 181 | 4.8 | 12.9 | 0.05 | 0.30 | 0.15 | 97 | 1001.2 |
| 20260830090509 | 17 | 176 | 4.8 | 12.9 | 0.08 | 0.30 | 0.15 | 97 | 1001.3 |
| 20260830090010 | 17 | 175 | 4.8 | 11.3 | 0.08 | 0.30 | 0.15 | 97 | 1001.3 |
| 20260830085512 | 17 | 273 | 4.8 | 11.3 | 0.05 | 0.28 | 0.15 | 97 | 1001.3 |
| 20260830085008 | 17 | 176 | 3.2 | 14.5 | 0.05 | 0.28 | 0.15 | 97 | 1001.3 |
| 20260830084508 | 17 | 204 | 6.4 | 14.5 | 0.08 | 0.28 | 0.15 | 97 | 1001.3 |
| 20260830084008 | 17 | 163 | 4.8 | 11.3 | 0.05 | 0.25 | 0.13 | 97 | 1001.3 |
| 20260830083511 | 16 | 157 | 3.2 | 12.9 | 0.05 | 0.25 | 0.13 | 97 | 1001.4 |
| 20260830083007 | 16 | 178 | 4.8 | 16.1 | 0.05 | 0.25 | 0.13 | 97 | 1001.4 |
| 20260830082508 | 16 | 163 | 6.4 | 16.1 | 0.05 | 0.23 | 0.10 | 97 | 1001.4 |
| 20260830082005 | 16 | 223 | 4.8 | 12.9 | 0.05 | 0.23 | 0.10 | 97 | 1001.4 |
| 20260830081515 | 16 | 190 | 6.4 | 12.9 | 0.05 | 0.23 | 0.10 | 97 | 1001.4 |
| 20260830081004 | 16 | 195 | 4.8 | 19.3 | 0.05 | 0.23 | 0.10 | 97 | 1001.5 |
| 20260830080503 | 16 | 213 | 6.4 | 19.3 | 0.05 | 0.23 | 0.08 | 97 | 1001.5 |
| 20260830080003 | 16 | 169 | 4.8 | 16.1 | 0.05 | 0.23 | 0.08 | 97 | 1001.5 |
| 20260830075502 | 16 | 200 | 4.8 | 11.3 | 0.05 | 0.23 | 0.08 | 97 | 1001.5 |
| 20260830075004 | 16 | 187 | 6.4 | 11.3 | 0.05 | 0.23 | 0.08 | 97 | 1001.6 |
| 20260830074502 | 16 | 196 | 4.8 | 14.5 | 0.05 | 0.20 | 0.05 | 97 | 1001.6 |
| 20260830074001 | 16 | 195 | 3.2 | 14.5 | 0.05 | 0.20 | 0.05 | 97 | 1001.7 |
| 20260830073600 | 16 | 228 | 3.2 | 14.5 | 0.05 | 0.20 | 0.05 | 97 | 1001.7 |
| 20260830073105 | 16 | 213 | 3.2 | 14.5 | 0.05 | 0.20 | 0.05 | 97 | 1001.8 |
| 20260830072600 | 16 | 204 | 3.2 | 14.5 | 0.05 | 0.20 | 0.05 | 97 | 1001.8 |
| 20260830072103 | 16 | 177 | 3.2 | 11.3 | 0.03 | 0.18 | 0.05 | 97 | 1001.9 |
| 20260830071602 | 16 | 217 | 3.2 | 8.0 | 0.03 | 0.18 | 0.05 | 97 | 1001.9 |
| 20260830071058 | 16 | 163 | 1.6 | 9.7 | 0.03 | 0.18 | 0.05 | 97 | 1001.9 |
| 20260830070600 | 16 | 215 | 1.6 | 12.9 | 0.03 | 0.18 | 0.05 | 97 | 1002.0 |
| 20260830070057 | 16 | 211 | 3.2 | 12.9 | 0.05 | 0.18 | 0.05 | 97 | 1002.1 |
| 20260830065559 | 16 | 185 | 4.8 | 16.1 | 0.05 | 0.18 | 0.05 | 97 | 1002.1 |
| 20260830065056 | 16 | 190 | 4.8 | 16.1 | 0.03 | 0.15 | 0.03 | 96 | 1002.1 |
| 20260830064658 | 16 | 207 | 1.6 | 12.9 | 0.03 | 0.15 | 0.03 | 96 | 1002.0 |
| 20260830064055 | 16 | 211 | 4.8 | 16.1 | 0.03 | 0.15 | 0.03 | 96 | 1002.1 |
| 20260830063555 | 16 | 166 | 3.2 | 11.3 | 0.03 | 0.15 | 0.03 | 96 | 1002.1 |
| 20260830063100 | 16 | 191 | 4.8 | 12.9 | 0.03 | 0.15 | 0.03 | 96 | 1002.1 |
| 20260830062556 | 16 | 125 | 4.8 | 14.5 | 0.03 | 0.15 | 0.03 | 96 | 1002.1 |
| 20260830062054 | 16 | 223 | 3.2 | 9.7 | 0.03 | 0.15 | 0.03 | 96 | 1002.2 |
| 20260830061554 | 16 | 194 | 4.8 | 9.7 | 0.03 | 0.15 | 0.03 | 96 | 1002.2 |
| 20260830061052 | 16 | 200 | 3.2 | 12.9 | 0.03 | 0.15 | 0.03 | 96 | 1002.3 |
| 20260830060552 | 16 | 190 | 3.2 | 11.3 | 0.03 | 0.15 | 0.03 | 96 | 1002.4 |
| 20260830060056 | 16 | 199 | 3.2 | 9.7 | 0.00 | 0.15 | 0.00 | 96 | 1002.4 |
| 20260830055550 | 16 | 195 | 4.8 | 9.7 | 0.00 | 0.15 | 0.00 | 96 | 1002.4 |
| 20260830055052 | 16 | 206 | 3.2 | 9.7 | 0.00 | 0.15 | 0.00 | 96 | 1002.4 |
| 20260830054554 | 16 | 158 | 3.2 | 11.3 | 0.00 | 0.15 | 0.00 | 96 | 1002.5 |
| 20260830054052 | 16 | 195 | 4.8 | 11.3 | 0.00 | 0.15 | 0.00 | 96 | 1002.6 |
| 20260830053549 | 16 | 167 | 3.2 | 11.3 | 0.00 | 0.15 | 0.00 | 96 | 1002.6 |
| 20260830053050 | 16 | 128 | 4.8 | 12.9 | 0.00 | 0.15 | 0.00 | 96 | 1002.6 |
| 20260830052546 | 16 | 113 | 4.8 | 12.9 | 0.00 | 0.15 | 0.00 | 96 | 1002.7 |
| 20260830052048 | 16 | 146 | 3.2 | 11.3 | 0.00 | 0.15 | 0.00 | 96 | 1002.8 |
| 20260830051545 | 16 | 196 | 3.2 | 11.3 | 0.00 | 0.15 | 0.00 | 96 | 1002.9 |
| 20260830051045 | 16 | 205 | 3.2 | 11.3 | 0.00 | 0.15 | 0.00 | 96 | 1002.9 |
| 20260830050543 | 16 | 151 | 4.8 | 12.9 | 0.00 | 0.15 | 0.00 | 95 | 1002.9 |
| 20260830050042 | 16 | 104 | 4.8 | 16.1 | 0.00 | 0.15 | 0.00 | 95 | 1003.0 |
| 20260830045541 | 16 | 208 | 4.8 | 16.1 | 0.00 | 0.15 | 0.00 | 95 | 1003.0 |
| 20260830045044 | 16 | 210 | 6.4 | 16.1 | 0.00 | 0.15 | 0.00 | 95 | 1003.1 |
| 20260830044544 | 16 | 205 | 4.8 | 9.7 | 0.00 | 0.15 | 0.00 | 95 | 1003.1 |
| 20260830044039 | 16 | 163 | 1.6 | 9.7 | 0.00 | 0.15 | 0.00 | 95 | 1003.2 |
| 20260830043539 | 16 | 193 | 0.0 | 9.7 | 0.00 | 0.15 | 0.00 | 95 | 1003.2 |
| 20260830043038 | 16 | 207 | 1.6 | 8.0 | 0.00 | 0.15 | 0.00 | 95 | 1003.3 |
| 20260830042538 | 16 | 207 | 3.2 | 9.7 | 0.00 | 0.15 | 0.00 | 95 | 1003.3 |
| 20260830042038 | 16 | 147 | 3.2 | 9.7 | 0.00 | 0.15 | 0.00 | 95 | 1003.4 |
| 20260830041545 | 16 | 186 | 4.8 | 12.9 | 0.00 | 0.15 | 0.00 | 94 | 1003.4 |
| 20260830041137 | 16 | 142 | 4.8 | 12.9 | 0.00 | 0.15 | 0.00 | 94 | 1003.4 |
| 20260830040535 | 16 | 161 | 4.8 | 9.7 | 0.00 | 0.15 | 0.00 | 94 | 1003.5 |
| 20260830040040 | 16 | 211 | 3.2 | 9.7 | 0.00 | 0.15 | 0.00 | 94 | 1003.5 |
| 20260830035534 | 16 | 191 | 1.6 | 6.4 | 0.00 | 0.15 | 0.00 | 94 | 1003.6 |
| 20260830035038 | 16 | 191 | 3.2 | 11.3 | 0.00 | 0.15 | 0.00 | 94 | 1003.6 |
| 20260830034533 | 16 | 184 | 3.2 | 11.3 | 0.00 | 0.15 | 0.00 | 94 | 1003.7 |
| 20260830034032 | 16 | 186 | 3.2 | 8.0 | 0.00 | 0.15 | 0.00 | 94 | 1003.7 |
| 20260830033531 | 16 | 134 | 1.6 | 11.3 | 0.00 | 0.15 | 0.00 | 94 | 1003.8 |
| 20260830033031 | 16 | 176 | 4.8 | 11.3 | 0.00 | 0.15 | 0.00 | 94 | 1003.8 |
| 20260830032531 | 16 | 231 | 3.2 | 9.7 | 0.00 | 0.15 | 0.00 | 94 | 1003.9 |
| 20260830032031 | 16 | 150 | 4.8 | 9.7 | 0.00 | 0.15 | 0.00 | 94 | 1003.8 |
| 20260830031530 | 16 | 217 | 3.2 | 12.9 | 0.00 | 0.15 | 0.00 | 94 | 1003.9 |
| 20260830031030 | 16 | 175 | 3.2 | 14.5 | 0.00 | 0.15 | 0.00 | 93 | 1003.9 |
| 20260830030532 | 16 | 182 | 4.8 | 12.9 | 0.00 | 0.15 | 0.00 | 94 | 1004.0 |
| 20260830030039 | 16 | 161 | 3.2 | 9.7 | 0.00 | 0.15 | 0.00 | 94 | 1004.0 |
| 20260830025529 | 16 | 157 | 4.8 | 9.7 | 0.00 | 0.15 | 0.00 | 94 | 1004.1 |
| 20260830025029 | 16 | 175 | 3.2 | 11.3 | 0.00 | 0.15 | 0.00 | 94 | 1004.1 |
| 20260830024531 | 16 | 201 | 3.2 | 11.3 | 0.00 | 0.15 | 0.00 | 94 | 1004.1 |
| 20260830024028 | 16 | 183 | 3.2 | 6.4 | 0.00 | 0.15 | 0.00 | 94 | 1004.1 |
| 20260830023527 | 16 | 167 | 1.6 | 8.0 | 0.00 | 0.15 | 0.00 | 94 | 1004.2 |
| 20260830023027 | 16 | 88 | 1.6 | 8.0 | 0.00 | 0.15 | 0.00 | 94 | 1004.1 |
| 20260830022527 | 16 | 143 | 1.6 | 11.3 | 0.00 | 0.15 | 0.00 | 94 | 1004.2 |
| 20260830022026 | 16 | 186 | 4.8 | 11.3 | 0.00 | 0.15 | 0.00 | 94 | 1004.3 |
| 20260830021525 | 16 | 245 | 3.2 | 9.7 | 0.00 | 0.15 | 0.00 | 94 | 1004.3 |
| 20260830021023 | 16 | 184 | 3.2 | 11.3 | 0.00 | 0.15 | 0.00 | 95 | 1004.4 |
| 20260830020527 | 16 | 191 | 3.2 | 11.3 | 0.00 | 0.15 | 0.00 | 95 | 1004.5 |
| 20260830020023 | 16 | 212 | 3.2 | 11.3 | 0.00 | 0.15 | 0.00 | 95 | 1004.5 |
| 20260830015523 | 16 | 220 | 3.2 | 11.3 | 0.00 | 0.15 | 0.00 | 95 | 1004.6 |
| 20260830015022 | 16 | 236 | 3.2 | 11.3 | 0.00 | 0.15 | 0.00 | 95 | 1004.6 |
| 20260830014522 | 16 | 179 | 1.6 | 6.4 | 0.00 | 0.15 | 0.00 | 95 | 1004.7 |
| 20260830014022 | 16 | 169 | 3.2 | 8.0 | 0.00 | 0.15 | 0.00 | 95 | 1004.7 |
| 20260830013521 | 16 | 206 | 0.0 | 14.5 | 0.00 | 0.15 | 0.00 | 95 | 1004.7 |
| 20260830013021 | 16 | 217 | 6.4 | 14.5 | 0.00 | 0.15 | 0.00 | 95 | 1004.7 |
| 20260830012521 | 16 | 169 | 0.0 | 8.0 | 0.00 | 0.15 | 0.00 | 95 | 1004.8 |
| 20260830012023 | 16 | 236 | 1.6 | 12.9 | 0.00 | 0.15 | 0.00 | 95 | 1004.8 |
| 20260830011520 | 16 | 271 | 1.6 | 12.9 | 0.00 | 0.15 | 0.00 | 95 | 1004.9 |
| 20260830011019 | 16 | 182 | 1.6 | 12.9 | 0.00 | 0.15 | 0.00 | 95 | 1004.9 |
| 20260830010519 | 16 | 215 | 4.8 | 11.3 | 0.00 | 0.15 | 0.00 | 95 | 1005.0 |
| 20260830010019 | 16 | 180 | 3.2 | 9.7 | 0.00 | 0.15 | 0.00 | 95 | 1004.9 |
| 20260830005519 | 16 | 173 | 1.6 | 11.3 | 0.00 | 0.15 | 0.00 | 95 | 1005.0 |
| 20260830005019 | 16 | 164 | 3.2 | 11.3 | 0.00 | 0.15 | 0.00 | 95 | 1005.1 |